Simultaneous Nadir Overpasses (SNOs) Predictions

Prediction of SNOs between TERRA and METOP-C Satellite Orbit:

Table of predicted SNOs for the next 14.0 days since TLE Epoch: 4/18/2020
Index Date (TERRA) Time (TERRA) Lat,Lon (TERRA) SZA (TERRA ) Date (METOP-C) Time (METOP-C) Lat,Lon (METOP-C) SZA (METOP-C ) Distance(km) Time Diff (sec)
1 04/19/2020 11:25:12 81.30, 56.06 72.77 04/19/2020 11:24:59 81.30, 56.18 72.77 1.92 13
2 04/19/2020 12:14:39 -81.30,-136.39 107.26 04/19/2020 12:15:39 -81.30,-136.46 107.24 1.24 60
3 04/22/2020 06:59:25 81.30, 122.45 71.83 04/22/2020 06:59:22 81.30, 122.63 71.85 2.96 3
4 04/22/2020 07:48:51 -81.32, -69.60 108.14 04/22/2020 07:50:01 -81.31, -69.57 108.11 0.91 70
5 04/25/2020 01:44:12 -81.29, 21.09 109.10 04/25/2020 01:43:05 -81.30, 21.25 109.11 2.70 67
6 04/25/2020 02:33:38 81.29,-171.22 70.90 04/25/2020 02:33:46 81.30,-171.33 70.90 1.96 8
7 04/27/2020 21:18:23 -81.30, 87.76 109.95 04/27/2020 21:17:27 -81.30, 87.73 109.98 0.78 56
8 04/27/2020 22:07:49 81.30,-104.57 70.05 04/27/2020 22:08:07 81.30,-104.51 70.07 0.94 18
9 04/30/2020 16:52:36 -81.29, 154.00 110.83 04/30/2020 16:51:51 -81.29, 153.81 110.87 3.12 45




NCC Satellite Simultaneous Nadir Overpasses (SNOs) Prediction Service
